Volver al catálogo

ARIANE 3 DEB

LostHEO
NORAD 26809·DEBRIS·🇫🇷 France

Lanzado Jul 21, 1988 desde Guiana Space Centre

Loading…

Próximos Pases (próximas 24 horas)

TLE

ObsoletoSource: Space-Track

Época: Oct 10, 2024, 20:40 UTC

1 26809U 88063J   24284.86141042  .00019765  00000-0  28099-1 0  9993
2 26809   6.5257 166.4492 6869316 232.7093  43.2237  2.74036670245264

Sigue ARIANE 3 DEB en tiempo real con AllMySat

Download on the App Store